Tracking 29090 objects as of 15-Jul-2024
HD Live streaming from Space Station
objects crossing your sky now

COSMOS 1349

Track COSMOS 1349 now!
10-day predictions
COSMOS 1349 is classified as:


NORAD ID: 13127
Int'l Code: 1982-030A
Perigee: 970.1 km
Apogee: 1,015.2 km
Inclination: 82.9 °
Period: 104.8 minutes
Semi major axis: 7363 km
RCS: 2.1672 m2 (large)
Launch date: April 8, 1982
Source: Commonwealth of Independent States (former USSR) (CIS)
Launch site: PLESETSK MISSILE AND SPACE COMPLEX (PKMTR)
Your satellite tracking list
Your tracking list is empty




NASA's NSSDC Master Catalog

Two Line Element Set (TLE):
1 13127U 82030A   24197.14173627  .00000084  00000-0  73402-4 0  9993
2 13127  82.9317 322.3670 0030588 189.0054 345.3396 13.73928539119150
Source of the keplerian elements: AFSPC